EST,Max TemperatureF,Mean TemperatureF,Min TemperatureF,Max Dew PointF,MeanDew PointF,Min DewpointF,Max Humidity, Mean Humidity, Min Humidity, Max Sea Level PressureIn, Mean Sea Level PressureIn, Min Sea Level PressureIn, Max VisibilityMiles, Mean VisibilityMiles, Min VisibilityMiles, Max Wind SpeedMPH, Mean Wind SpeedMPH, Max Gust SpeedMPH,PrecipitationIn, CloudCover, Events, WindDirDegrees
2012-12-1,44,35,25,36,26,18,85,77,68,30.43,30.36,30.26,10,10,9,18,10,23,0.00,7,,85
2012-12-2,54,49,43,50,43,36,96,80,63,30.25,30.06,29.94,10,8,4,21,10,31,0.27,8,Rain,182
2012-12-3,52,45,38,48,40,37,96,84,71,30.24,30.17,30.06,10,10,7,18,6,25,T,7,,300
2012-12-4,70,56,41,55,48,40,100,76,52,30.13,29.99,29.86,10,7,2,24,10,30,0.42,7,Fog-Rain,201
2012-12-5,50,40,30,45,30,16,89,71,53,30.35,30.15,29.95,10,7,1,24,14,32,0.15,8,Rain-Snow,289
2012-12-6,36,31,26,22,19,16,69,61,53,30.40,30.29,30.09,10,10,10,12,6,15,0.00,7,,74
2012-12-7,43,38,33,36,30,16,100,69,37,30.09,30.02,29.97,10,8,4,15,6,18,0.05,7,Rain,133
2012-12-8,49,42,34,45,39,33,100,88,76,30.10,29.89,29.75,10,8,3,22,7,29,0.09,8,Rain,51
2012-12-9,43,39,35,41,32,29,93,79,64,30.29,30.14,29.85,10,10,5,18,9,24,0.17,8,Rain,41
2012-12-10,57,48,39,52,44,37,100,89,77,29.83,29.62,29.49,10,7,2,21,10,30,1.08,8,Rain,264
2012-12-11,39,33,27,37,30,24,100,85,69,30.20,29.92,29.69,10,9,2,16,7,21,0.01,8,Rain-Snow,293
2012-12-12,42,35,27,27,26,23,92,71,49,30.41,30.32,30.20,10,10,10,16,7,21,0.00,6,,231
2012-12-13,46,39,32,29,26,23,75,60,45,30.44,30.37,30.23,10,10,10,10,3,13,0.00,5,,211
2012-12-14,46,36,25,33,27,20,85,67,49,30.24,30.19,30.16,10,10,7,21,7,25,0.00,5,,255
2012-12-15,43,38,32,32,28,24,85,71,57,30.32,30.23,30.09,10,10,7,18,6,23,0.00,7,,75
2012-12-16,48,41,33,39,32,24,92,81,69,30.07,29.91,29.83,10,10,5,22,12,30,0.09,8,Rain-Snow,84
2012-12-17,47,42,36,43,38,34,100,91,82,29.81,29.75,29.62,10,9,4,16,9,20,0.55,8,Rain-Snow,77
2012-12-18,45,42,39,43,39,32,100,91,82,29.66,29.53,29.43,10,7,2,18,9,25,0.78,8,Rain,305
2012-12-19,44,37,30,32,28,23,82,64,45,30.18,29.89,29.66,10,10,10,23,11,29,T,6,Rain,278
2012-12-20,41,33,24,33,23,19,88,69,50,30.22,30.00,29.58,10,10,10,29,9,37,0.02,6,Rain,93
2012-12-21,39,36,33,34,32,30,92,86,79,29.50,29.22,29.13,10,7,1,23,13,29,0.82,8,Rain-Snow,247
2012-12-22,34,31,27,30,24,21,89,75,61,29.85,29.52,29.21,9,2,0,33,21,45,0.34,8,Fog-Snow,281
2012-12-23,36,33,30,27,25,22,85,71,56,29.95,29.85,29.78,10,5,0,22,13,28,0.23,8,Fog-Snow,257
2012-12-24,37,32,27,23,21,19,69,61,52,30.06,29.99,29.91,10,9,0,23,8,31,0.02,8,Fog-Snow,127
2012-12-25,29,21,12,25,21,9,92,75,58,30.36,30.09,29.90,10,7,0,14,6,16,0.17,6,Fog-Snow,2
2012-12-26,29,20,10,25,15,7,92,75,58,30.38,30.11,29.74,10,6,0,22,7,28,0.52,7,Snow,70
2012-12-27,29,24,19,27,20,15,92,84,75,29.98,29.76,29.67,10,3,0,21,11,26,1.45,8,Fog-Snow,301
2012-12-28,29,27,25,23,22,21,88,82,75,30.12,30.06,29.97,10,9,4,16,9,20,T,8,Snow,252
2012-12-29,30,28,25,25,23,16,88,82,75,30.03,29.78,29.64,10,4,1,15,5,18,0.30,8,Snow,37
2012-12-30,26,22,18,20,16,12,84,71,57,30.22,29.98,29.78,10,5,1,25,11,33,0.04,7,Snow,295
2012-12-31,36,31,26,25,21,18,75,64,52,30.15,29.98,29.82,10,10,9,22,12,26,T,8,Snow,233